weather.gov     
National Weather Service

Regional Weather Roundup
NWS Homepage
This page is being discontinued on March 12, 2014.
The same data is available at this site. Please update your bookmarks.
Thank you, and we apologize for the inconvenience.
Please send an email to SR-SRH.Webmaster@noaa.gov with any concerns.


Current Version
Previous Version:    01  02  03  04  05  06  07  08  09  10  11  12  13  14  15  16  17  18  19  20  21  22  23  24  25  26  27  28  29  30  
   31  32  33  34  35  36  37  38  39  40  41  42  43  44  45  46  47  48  49  50  51  52  53  
[Printable]
903
ASUS42 KCHS 292025
RWRCHS

REGIONAL WEATHER ROUNDUP
NATIONAL WEATHER SERVICE CHARLESTON SC
400 PM EDT TUE JUL 29 2014

NOTE: "FAIR" INDICATES FEW OR NO CLOUDS BELOW 12,000 FEET WITH NO
SIGNIFICANT WEATHER AND/OR OBSTRUCTIONS TO VISIBILITY.

NOT ALL STATIONS ARE QUALITY CONTROLLED BY THE NATIONAL
WEATHER SERVICE. USE DATA WITH CAUTION...ESPECIALLY
DEWPOINT OBSERVATIONS.

SCZ027-030-031-034>040-042>050-292100-
...SOUTH CAROLINA...

CITY           SKY/WX    TMP DP  RH WIND       PRES   REMARKS
N CHARLESTON   MOSUNNY   88  63  43 NW8       29.89F
WATERFRONT PRK   N/A     84 N/A N/A SE7         N/A
FORT JOHNSON   NOT AVBL
MOUNT PLEASANT FAIR      84  72  65 SE6       29.89S
JOHNS ISLAND   PTCLDY    86  70  58 CALM      29.90S HX  90
PINOPOLIS        N/A     88  63  42 N6        29.83F
MONCKS CORNER    N/A     88  68  51 N7        29.90S HX  91
SUMMERVILLE    MOCLDY    86  68  54 NW5       29.91S
BEAUFORT MCAS  MOSUNNY   89  67  47 VRB3      29.90S HX  92
BEAUFORT ARPT  FAIR      88  66  48 SW6       29.89S HX  90
HILTON HEAD IS MOSUNNY   86  73  66 E7        29.91F HX  93
GEORGETOWN     NOT AVBL
WALTERBORO       N/A     90  54  29 NE5       29.90F
ORANGEBURG     MOSUNNY   86  60  41 SW8       29.91F
BARNWELL       FAIR      88  59  37 W5        29.92S
AIKEN          FAIR      88  63  42 SE6       29.95F
MANNING        MOCLDY    88  64  45 W3        29.91S
KINGSTREE      NOT AVBL
COLUMBIA       MOSUNNY   90  55  30 VRB7      29.91F
SUMTER         MOSUNNY   88  60  39 VRB6      29.90F
FLORENCE       PTSUNNY   85  59  41 NW3       29.91S
MYRTLE BEACH   PTSUNNY   88  64  45 S10       29.89F
N MYRTLE BEACH MOSUNNY   86  63  45 CALM      29.89S

$$

GAZ063-065-086>088-099>101-113>116-118-119-134-136>141-150-292100-
...GEORGIA...

CITY           SKY/WX    TMP DP  RH WIND       PRES   REMARKS
SAVANNAH ARPT  MOSUNNY   91  61  36 NW12      29.90S HX  91
HUNTER AAF     PTSUNNY   90  65  44 W8        29.88S HX  91
FORT STEWART   SUNNY     92  60  34 NW9       29.89F HX  91
STATESBORO     NOT AVBL
SYLVANIA       PTCLDY    86  67  52 CALM      29.92S
CLAXTON        CLOUDY    88  64  45 N3        29.91S
THOMSON        SUNNY     88  66  47 SW5       29.97F HX  90
AUGUSTA-BUSH   MOSUNNY   85  58  39 CALM      29.91F
AUGUSTA-DANIEL MOSUNNY   88  56  33 VRB6      29.93F
SWAINSBORO     MOCLDY    91  63  38 NW10G16   29.92F HX  92
VIDALIA          N/A     90  61  37 N6        29.91F
ALMA           SUNNY     92  57  30 W9        29.91F HX  90
WAYCROSS       SUNNY     96  63  33 W7G18     29.90S HX  97
JESUP          FAIR      95  61  31 N8        29.89F HX  95
BRUNSWICK      SUNNY     95  55  26 W8        29.89S HX  93
SAINT SIMONS   PTSUNNY   88  70  55 SE12      29.88F HX  93

$$

SCZ027-028-034-036>038-045-046-048>050-GAZ119-141-292100-
...LAKE AND SUPPLEMENTAL COASTAL OBSERVATIONS...

STATION/POSITION TIME  TEMP    WIND        PRES    WAVE   SWELL
                       AIR SEA DIR/SP/G            HT/PER HT/PER/DIR
                 (UTC) (F)     (DEG/KT/KT) (MB)    (FT/S) (FT/S/D)
UPR LAKE MARION  NOT AVBL
WINYAH BAY       1900   83     100/  6     1012.0S
LAKE MURRAY      1900   85     170/  5/  7 1012.9F
ACE BASIN NERRS  1900   86     190/  1     1013.0S
FORT PULASKI     2000   82      70/ 10/ 12 1012.6F
SAPELO ISLAND    1900   92     130/  6     1013.0S

$$

ANZ835-935-AMZ111-154-330-350-352-354-374-450-454-472-292100-
...C-MAN AND BUOY OBSERVATIONS...

STATION/POSITION TIME  TEMP    WIND        PRES    WAVE   SWELL
                       AIR SEA DIR/SP/G            HT/PER HT/PER/DIR
                 (UTC) (F)     (DEG/KT/KT) (MB)    (FT/S) (FT/S/D)
FOLLY BEACH CMAN 2000   83     130/  7/  8 1012.7F
BUOY 41004       2000   81 84   20/ 10/ 12 1011.7S   3/ 6   3/ 6
BUOY 41008       2000   83 87   50/  6/  8 1012.4F   2/ 9   2/110/ 9
5E ST. MARYS GA  2000      87                N/A     1/ 9
FRYING PAN BUOY  NOT AVBL
BUOY 41025       2000          VRB 16/ 17  1011.9F   4/ 7   3/170/ 7
CAPE LOOKOUT NC  2000   78      60/ 12/ 13 1012.2F
BUOY 41002       1915   80 81  190/ 19/ 23 1013.4F   6/ 8   3/230/ 8
BUOY 41010       2000   85 84  250/ 14/ 16 1013.5F   4/ 6   2/120/ 9
BUOY 41012       NOT AVBL
ST AUGUSTINE FL  2000   83     140/ 11/ 12 1012.9F
CAPERS NEARSHORE 1900   84     130/  6/  8   N/A
FRIPP NEARSHORE  NOT AVBL


$$




U.S. Dept. of Commerce
NOAA National Weather Service
1325 East West Highway
Silver Spring, MD 20910
E-mail: w-nws.webmaster@noaa.gov
Page last modified: May 16, 2007
NATIONAL WEATHER SERVICE: for Safety, for Work, for Fun - FOR LIFE